SCP
0 0 0 0 0 0 0 0 0 0 0 0 0 0 0 0 0 0 0 0 0 0 0 0 0 1 1 2 2 2 2 2 2 1 1 0 0 0 0 0 0 0 0 0
0 0 0 0 0 0 0 0 0 0 0 0 0 0 0 0 0 0 0 0 0 0 0 0 0 0 1 2 2 2 2 2 1 1 1 0 0 0 0 0 0 0 0 0
0 0 0 0 0 0 0 0 0 0 0 0 0 0 0 0 0 0 0 0 0 0 0 0 0 0 1 1 2 2 2 1 1 1 1 1 0 0 0 0 0 0 0 0
0 0 0 0 0 0 0 0 0 0 0 0 0 0 0 0 0 0 0 0 0 0 0 0 0 0 0 1 2 2 2 1 1 1 1 1 1 0 0 0 0 0 0 0
0 0 0 0 0 0 0 0 0 0 0 0 0 0 0 0 0 0 0 0 0 0 0 0 0 0 0 1 2 2 2 1 1 1 1 1 1 0 0 0 0 0 0 0
0 0 0 0 0 0 0 0 0 0 0 0 0 0 0 0 0 0 0 0 0 0 0 0 0 0 1 1 2 2 1 1 1 1 1 1 1 0 0 0 0 0 0 0
0 0 0 0 0 0 0 0 0 0 0 0 0 0 0 0 1 0 0 0 0 0 0 0 0 0 0 1 2 2 1 1 1 1 1 1 1 0 0 0 0 0 0 0
0 0 0 0 0 0 0 0 0 0 0 0 0 0 0 1 1 0 0 0 0 0 0 0 0 0 0 1 1 2 1 1 1 1 1 1 1 0 0 0 0 0 0 0
0 0 0 0 0 0 0 0 0 0 0 0 0 0 0 0 0 0 0 0 0 0 0 0 0 0 0 0 1 1 1 1 1 1 1 1 1 0 0 0 0 0 0 0
0 0 0 0 0 0 0 0 0 0 0 0 0 0 0 0 0 0 0 0 0 0 0 0 0 0 0 0 0 1 1 1 1 1 1 1 1 0 0 0 0 0 0 0
0 0 0 0 0 0 0 0 0 0 0 0 0 0 0 0 0 0 0 0 0 0 0 0 0 0 0 0 0 0 1 1 1 1 1 1 0 0 0 0 0 0 0 0
0 0 0 0 0 0 0 0 0 0 0 0 0 0 0 0 0 0 0 0 0 0 0 0 0 0 0 0 0 0 1 1 1 1 0 0 0 0 0 0 0 0 0 0
0 0 0 0 0 0 0 0 0 0 0 0 0 0 0 0 0 0 0 0 0 0 0 0 0 0 0 0 0 0 0 0 0 0 0 0 0 0 0 0 0 0 0 0
0 0 0 0 0 0 0 0 0 0 0 0 0 0 0 0 0 0 0 0 0 0 0 0 0 0 0 0 0 0 0 0 0 0 0 0 0 0 0 0 0 0 0 0
0 0 0 0 0 0 0 0 0 0 0 0 0 0 0 0 0 0 0 0 0 0 0 0 0 0 0 0 0 0 0 0 0 0 0 0 0 0 0 0 0 0 0 0
0 0 0 0 0 0 0 0 0 0 0 0 0 0 0 0 0 0 0 0 0 0 0 0 0 0 0 0 0 0 0 0 0 0 0 0 0 0 0 0 0 0 0 0
0 0 0 0 0 0 0 0 0 0 0 0 0 0 0 0 0 0 0 0 0 0 0 0 0 0 0 0 0 0 0 0 0 0 0 0 0 0 0 0 0 0 0 0
0 0 0 0 0 0 0 0 0 0 0 0 0 0 0 0 0 0 0 0 0 0 0 0 0 0 0 0 0 0 0 0 0 0 0 0 0 0 0 0 0 0 0 0
0 0 0 0 0 0 0 0 0 0 0 0 0 0 0 0 0 0 0 0 0 0 0 0 0 0 0 0 0 0 0 0 0 0 0 0 0 0 0 0 0 0 0 0
0 0 0 0 0 0 0 0 0 0 0 0 0 0 0 0 0 0 0 0 0 0 0 0 0 0 0 0 0 0 0 0 0 0 0 0 0 0 0 0 0 0 0 0
0 0 0 0 0 0 0 0 0 0 0 0 0 0 0 0 0 0 0 0 0 0 0 0 0 0 0 0 0 0 0 0 0 0 0 0 0 0 0 0 0 0 0 0
0 0 0 0 0 0 0 0 0 0 0 0 0 0 0 0 0 0 0 0 0 0 0 0 0 0 0 0 0 0 0 0 0 0 0 0 0 0 0 0 0 0 0 0
0 0 0 0 0 0 0 0 0 0 0 0 0 0 0 0 0 0 0 0 0 0 0 0 0 0 0 0 0 0 0 0 0 0 0 0 0 0 0 0 0 0 0 0
0 0 0 0 0 0 0 0 0 0 0 0 0 0 0 0 0 0 0 0 0 0 0 0 0 0 0 0 0 0 0 0 0 0 0 0 0 0 0 0 0 0 0 0
0 0 0 0 0 0 0 0 0 0 0 0 0 0 0 0 0 0 0 0 0 0 0 0 0 0 0 0 0 0 0 0 0 0 0 0 0 0 0 0 0 0 0 0
0 0 0 0 0 0 0 0 0 0 0 0 0 0 0 0 0 0 0 0 0 0 0 0 0 0 0 0 0 0 0 0 0 0 0 0 0 0 0 0 0 0 0 0
0 0 0 0 0 0 0 0 0 0 0 0 0 0 0 0 0 0 0 0 0 0 0 0 0 0 0 0 0 0 0 0 0 0 0 0 0 0 0 0 0 0 0 0
Wind_Speed
5 5 4 4 5 5 5 7 7 7 6 7 6 7 7 7 7 7 7 8 10 10 9 8 8 8 8 8 7 7 7 7 7 6 5 5 4 4 4 3 3 3 2 1
2 3 3 4 6 7 7 5 6 4 6 7 4 3 4 6 7 8 8 10 10 10 9 10 9 9 8 8 8 8 8 8 7 6 6 5 5 4 4 3 2 2 2 2
3 4 2 4 7 6 4 4 5 7 8 3 1 3 6 8 9 10 10 10 10 10 11 11 10 10 11 10 8 8 8 7 7 7 6 6 5 5 4 4 3 2 2 2
1 2 2 7 4 4 4 3 3 4 3 4 5 4 3 5 8 9 9 9 9 9 8 8 8 8 8 7 8 8 8 8 7 7 7 6 5 5 4 3 3 3 3 3
3 2 4 7 4 2 3 2 3 3 3 2 2 4 3 2 4 7 8 7 8 8 8 7 7 8 8 8 7 8 8 8 8 8 8 7 6 6 4 4 3 3 3 3
4 3 5 7 6 2 5 2 5 2 3 3 5 3 4 3 2 2 3 4 4 4 5 6 6 7 9 8 8 9 9 9 8 8 9 8 8 6 4 4 4 4 3 3
4 4 7 8 5 2 4 6 4 3 4 5 5 6 4 2 2 1 1 2 4 5 5 5 5 7 8 8 10 10 7 6 6 7 8 8 7 5 4 4 3 3 4 4
4 3 8 5 1 5 7 4 2 3 4 5 4 2 2 3 2 2 2 2 4 4 3 3 5 6 6 7 7 5 6 6 6 6 7 6 6 5 4 5 4 4 3 4
8 8 6 3 4 3 4 4 3 4 4 6 5 3 2 2 2 2 2 2 3 4 3 2 3 5 6 5 4 6 6 6 6 5 5 5 6 6 4 4 4 4 4 5
1 3 3 2 0 1 2 4 3 4 5 5 5 4 3 3 2 2 2 2 3 4 4 2 1 2 4 3 4 6 6 5 4 5 4 4 4 5 5 5 5 5 5 5
1 3 1 3 1 1 1 3 4 4 4 5 6 4 4 3 2 2 2 2 3 4 3 2 1 1 1 3 5 5 5 4 4 4 4 4 4 5 6 6 7 7 7 6
6 7 5 4 4 3 3 3 4 5 4 3 5 5 4 3 2 2 3 3 3 3 2 2 2 1 0 2 4 5 4 3 3 3 3 3 3 3 5 6 8 10 10 8
5 5 5 4 3 3 4 4 4 5 5 4 3 4 4 3 2 3 3 3 3 3 2 2 2 1 0 1 3 4 3 3 2 3 3 3 3 3 3 4 5 7 9 10
3 4 2 2 3 2 4 4 4 4 3 4 4 4 4 4 3 3 3 2 3 3 3 2 2 1 0 1 2 2 2 2 2 2 3 3 3 4 4 4 4 4 6 9
2 3 4 3 2 2 3 5 5 4 3 3 3 4 4 4 3 2 2 2 3 3 2 2 2 0 1 1 2 2 1 1 1 1 1 2 2 3 3 4 4 4 4 5
3 2 3 4 4 3 4 5 5 3 3 3 3 3 4 4 3 3 2 3 4 2 1 1 0 1 0 2 2 1 0 0 0 1 0 1 1 2 3 3 4 4 4 5
5 4 4 4 4 4 4 4 5 4 3 3 3 3 4 4 4 3 2 2 3 2 1 1 1 1 1 1 1 1 0 1 1 0 1 1 2 2 3 3 3 4 4 5
6 6 6 7 6 5 4 4 4 4 4 3 4 4 4 5 4 3 2 2 2 2 2 1 0 1 1 0 1 0 0 1 1 1 2 2 2 2 2 3 4 5 4 4
4 4 4 4 5 5 4 4 4 3 3 4 5 4 4 3 3 2 2 3 3 1 2 1 1 2 1 1 1 0 0 1 1 2 2 3 3 2 2 3 4 4 4 4
3 4 4 4 4 4 4 3 4 4 3 4 5 4 3 2 2 3 3 2 2 2 2 0 1 1 0 1 1 0 0 1 1 2 2 2 2 3 3 3 3 4 3 3
4 5 5 4 4 3 3 4 4 4 3 4 5 5 3 2 2 3 3 1 2 1 1 1 1 0 0 1 1 0 1 1 2 2 2 2 2 3 3 3 3 3 3 3
4 4 4 4 4 3 2 3 4 4 4 4 4 4 4 3 2 2 1 2 2 1 1 0 0 0 1 2 1 1 1 1 2 2 2 2 2 3 3 3 3 3 3 4
4 4 4 4 4 4 3 3 3 4 4 4 4 3 3 2 2 2 1 1 1 0 1 0 0 2 3 1 1 1 1 1 2 2 2 2 2 2 3 3 3 4 4 4
3 3 3 3 4 5 4 2 2 2 3 3 3 3 3 2 1 0 1 1 0 0 0 0 2 3 3 1 1 1 1 2 2 2 2 2 2 2 3 3 3 4 4 5
3 3 4 4 4 3 3 3 3 3 3 3 2 2 1 2 2 1 0 0 0 1 1 2 3 4 2 1 1 1 1 2 2 2 2 2 3 3 3 4 4 4 4 4
3 3 2 2 2 2 2 3 2 2 2 2 1 1 1 1 1 1 1 1 1 1 1 1 1 2 1 1 1 2 2 3 3 3 3 3 4 4 4 4 5 4 4 4
3 2 2 2 1 1 2 2 3 2 2 3 2 1 1 1 1 1 1 1 1 1 1 1 1 1 1 2 2 2 2 2 3 3 3 3 3 3 4 5 4 4 4 5
Wind_Direction
229 236 220 230 233 219 202 194 197 229 227 243 233 217 205 193 178 172 179 182 184 187 187 185 186 187 184 183 179 172 168 174 183 180 171 166 165 161 152 147 145 144 132 119
294 266 242 267 255 233 229 223 216 227 252 250 233 195 184 182 173 180 188 191 191 190 188 190 190 189 184 184 182 171 173 182 179 170 168 170 170 163 156 156 149 139 142 145
270 295 9 278 244 219 223 228 195 213 239 237 194 200 199 189 184 191 195 194 192 194 195 196 194 190 189 188 178 173 178 180 177 172 172 177 173 164 168 173 165 163 177 170
183 41 239 250 255 186 186 252 228 211 222 183 185 197 196 182 185 196 198 196 195 194 196 196 190 188 184 175 174 178 180 183 182 175 177 177 172 177 182 175 175 183 197 199
136 184 277 293 290 208 163 279 272 212 208 197 172 78 4 287 193 197 198 196 197 193 189 183 183 181 170 174 177 180 186 188 188 181 178 178 183 190 188 180 190 200 202 202
136 163 230 253 276 275 105 301 293 206 189 181 118 113 256 263 195 186 188 188 186 171 164 175 185 171 170 179 182 193 197 194 189 184 182 187 192 191 187 187 201 203 213 216
166 202 253 254 275 76 130 232 255 183 157 149 162 191 212 171 138 156 159 157 150 149 165 183 174 164 177 183 197 202 192 185 185 187 190 191 189 186 185 189 191 206 222 236
156 184 250 267 134 163 203 203 180 155 149 146 151 131 114 115 122 111 98 107 133 143 158 162 158 161 177 198 204 185 174 178 186 189 194 189 182 188 185 183 191 212 226 250
182 206 238 253 197 208 166 161 175 164 164 145 131 124 115 108 106 99 110 121 132 140 138 137 155 161 179 204 179 163 165 180 188 190 194 185 185 190 189 190 200 216 220 238
195 261 269 289 22 92 152 157 162 154 146 139 137 137 126 119 112 97 98 123 125 123 125 144 174 170 187 186 164 157 170 183 184 184 193 195 194 193 194 201 209 217 223 234
209 256 336 343 302 212 118 109 108 114 127 141 133 129 136 135 134 126 108 110 120 131 144 165 160 143 166 164 154 160 171 182 184 187 190 199 207 209 208 214 208 211 219 220
211 214 183 218 242 209 150 148 142 128 115 119 133 137 133 134 137 122 111 105 102 104 115 129 124 105 118 160 158 161 171 186 190 190 196 202 212 245 248 239 240 234 233 229
201 195 183 195 207 193 170 167 149 137 139 133 127 132 129 126 125 114 105 105 120 128 125 119 110 93 30 139 145 158 175 189 193 195 200 206 210 217 254 278 267 255 248 245
176 138 146 187 197 173 144 139 124 110 116 126 125 118 118 112 108 110 123 140 132 117 108 111 109 86 303 134 137 149 160 180 187 204 210 214 220 225 228 235 257 269 262 253
208 168 175 172 140 127 119 112 107 106 105 103 117 122 126 125 131 141 141 123 105 96 93 98 96 342 336 115 129 139 148 179 194 205 218 227 234 238 240 240 244 256 272 275
180 129 131 133 145 141 127 128 133 146 142 133 127 134 140 139 133 122 114 117 115 129 144 123 134 290 42 104 113 119 179 276 155 179 228 264 257 247 248 247 249 253 257 261
159 173 169 166 169 164 161 163 163 163 153 148 152 141 125 117 106 99 103 130 139 147 149 150 218 312 70 108 124 145 180 304 333 302 251 250 254 253 254 251 253 256 259 262
179 185 181 174 171 168 167 162 156 152 154 155 135 122 125 133 144 154 151 120 97 62 20 301 239 77 73 101 149 192 211 237 248 250 260 262 263 260 262 262 262 264 270 273
153 155 156 160 161 157 160 163 160 154 145 135 131 136 139 143 147 143 124 110 110 112 289 293 71 87 63 319 3 49 332 299 293 283 276 283 286 277 268 265 269 272 273 275
140 138 133 132 133 140 149 151 142 135 137 133 126 122 120 125 125 121 114 124 205 225 230 117 96 82 358 331 20 56 320 289 287 291 294 288 284 286 282 279 277 278 282 284
130 126 121 120 118 117 132 137 130 129 130 130 133 140 144 140 128 125 121 133 285 278 116 83 93 247 267 354 24 27 321 306 298 293 290 287 287 287 285 285 286 284 283 286
124 122 120 119 114 103 100 111 120 123 121 122 127 131 126 122 113 101 133 200 234 210 106 122 218 301 358 28 53 5 332 318 307 303 298 296 294 293 291 292 291 291 290 291
125 122 118 119 123 118 95 95 113 124 130 135 139 141 142 153 155 146 210 274 252 146 105 186 300 351 2 37 41 351 331 317 308 303 300 299 296 294 293 292 288 288 289 288
119 117 120 118 110 104 99 91 94 103 112 118 127 134 134 124 83 248 200 212 164 107 113 324 359 13 21 42 27 349 323 311 305 302 301 298 297 297 295 291 288 287 285 286
116 114 115 115 114 124 134 118 97 88 87 84 81 84 103 138 154 191 170 135 72 67 38 1 15 19 31 24 349 314 303 300 304 307 298 295 290 292 293 291 290 288 286 285
113 117 123 132 143 146 139 125 117 116 114 108 88 78 85 97 116 116 104 82 71 63 51 355 352 6 1 319 301 294 290 301 311 312 299 294 290 289 293 294 293 291 290 288
105 104 100 87 77 114 128 131 136 146 152 148 145 152 125 105 94 88 82 72 66 51 9 338 328 316 303 296 295 292 290 289 290 291 293 291 288 285 285 291 292 291 291 292